Flag for Poland Weather past 2 weeks in Bytom, Poland

Now
52 °F

Scattered clouds.


Feels Like: 47 °F
Forecast: 39 / 57 °F
Wind: 13 mph from Northwest

Location: Katowice Airport

Current Time: Sep 23, 2014 at 4:44:29 PM

Latest Report: Sep 23, 2014 at 4:00 PM


Visibility: N/A

Pressure: 29.95 "Hg

Humidity: 77%

Dew point: 45 °F

Location of BytomLocation

Historic Weather in Bytom — Graph

°F

Bytom temperature yesterday

Maximum temperature yesterday: 59 °F (at 12:00 AM)
Minimum temperature yesterday: 46 °F (at 10:30 PM)
Average temperature yesterday: 53 °F

Past Weeks' High & Low Weather Summary

 TemperatureHumidityPressure
High79 °F (Sep 8, 3:00 PM)100% (Sep 9, 3:30 AM)30.27 "Hg (Sep 9, 3:30 AM)
Low45 °F (Sep 23, 12:30 AM)38% (Sep 19, 1:00 PM)29.71 "Hg (Sep 22, 3:30 AM)
Average60 °F81%30.00 "Hg
* Reported Sep 8 3:00 PM — Sep 23 3:30 PM, Bytom, Weather by CustomWeather, © 2014

Note: Actual official high and low records may vary slightly from our data, if they occured in-between our weather recording intervals... More about our weather records

Advertising

Bytom weather history for previous 24 hours

 ConditionsComfort  
Time TempWeatherWind HumidityBarometerVisibility
3:30 PM
Sep 23
50 °FPassing clouds.14 mph88%29.95 "HgN/A
3:00 PM52 °FSprinkles. Scattered clouds.16 mph77%29.95 "HgN/A
2:30 PM52 °FPassing clouds.17 mph82%29.95 "HgN/A
2:00 PM50 °FPassing clouds.18 mph88%29.92 "HgN/A
1:30 PM52 °FSprinkles. Scattered clouds.15 mph88%29.92 "Hg5 mi
1:00 PM50 °FSprinkles. Broken clouds.15 mph94%29.92 "Hg4 mi
12:30 PM50 °FRain showers. Fog.15 mph94%29.92 "Hg2 mi
12:00 PM52 °FBroken clouds.14 mph88%29.89 "HgN/A
11:30 AM50 °FSprinkles. Fog.14 mph94%29.89 "Hg2 mi
11:00 AM50 °FLight rain. Broken clouds.20 mph94%29.86 "Hg4 mi
10:30 AM50 °FLight rain. Broken clouds.15 mph94%29.86 "Hg4 mi
10:00 AM50 °FLight rain. Broken clouds.16 mph94%29.83 "Hg4 mi
9:30 AM48 °FLight rain. Fog.14 mph100%29.83 "Hg2 mi
9:00 AM48 °FSprinkles. Fog.15 mph100%29.83 "Hg2 mi
8:30 AM48 °FLight rain. Fog.15 mph94%29.83 "Hg2 mi
8:00 AM48 °FDrizzle. Broken clouds.14 mph94%29.83 "Hg4 mi
7:30 AM48 °FBroken clouds.14 mph94%29.83 "HgN/A
7:00 AM46 °FPartly cloudy.13 mph93%29.83 "HgN/A
6:30 AM46 °FPartly cloudy.13 mph93%29.83 "HgN/A
6:00 AM46 °FPartly cloudy.13 mph93%29.80 "HgN/A
5:30 AM46 °FPartly cloudy.12 mph93%29.80 "HgN/A
5:00 AM46 °FPartly cloudy.12 mph93%29.83 "HgN/A
4:30 AM46 °FPassing clouds.12 mph93%29.80 "HgN/A
4:00 AM46 °FPassing clouds.10 mph93%29.83 "HgN/A
3:30 AM46 °FPassing clouds.12 mph93%29.83 "HgN/A
3:00 AM46 °FPassing clouds.12 mph93%29.83 "HgN/A
2:30 AM46 °FPassing clouds.9 mph87%29.83 "HgN/A
2:00 AM45 °FPassing clouds.8 mph93%29.83 "HgN/A
1:30 AM45 °FPassing clouds.9 mph93%29.83 "HgN/A
1:00 AM46 °FPassing clouds.9 mph87%29.83 "HgN/A
12:30 AM45 °FPassing clouds.8 mph93%29.83 "HgN/A
12:00 AM46 °FPassing clouds.10 mph87%29.83 "HgN/A
11:30 PM
Sep 22
46 °FPassing clouds.10 mph87%29.83 "HgN/A
11:00 PM46 °FClear.10 mph93%29.83 "Hg10 mi
10:30 PM46 °FClear.13 mph93%29.83 "Hg10 mi
10:00 PM48 °FClear.10 mph87%29.80 "Hg10 mi
9:30 PM48 °FPassing clouds.8 mph87%29.80 "HgN/A
9:00 PM50 °FClear.13 mph82%29.80 "Hg10 mi
8:30 PM50 °FPassing clouds.9 mph82%29.80 "HgN/A
8:00 PM50 °FPassing clouds.7 mph82%29.80 "HgN/A
7:30 PM50 °FPassing clouds.8 mph82%29.80 "HgN/A
7:00 PM52 °FSunny.8 mph77%29.80 "Hg10 mi
6:30 PM54 °FPassing clouds.12 mph72%29.77 "HgN/A
6:00 PM55 °FPassing clouds.10 mph72%29.77 "HgN/A
5:30 PM55 °FPassing clouds.12 mph72%29.77 "HgN/A
5:00 PM54 °FPassing clouds.13 mph77%29.77 "HgN/A
4:30 PM55 °FPassing clouds.12 mph82%29.77 "HgN/A
4:00 PM54 °FPassing clouds.15 mph82%29.77 "HgN/A
Weather by CustomWeather, © 2014

See weather overviewHow to use our weather pages